This is the latest recevied weather packets stored in our database for station/object K5NAN. If no packets are shown the sender has not sent any weather packets the latest 10 day(s).
| Time | Temp. | Humidity | Pressure | Rain* | Wind** | Luminosity | Snow |
|---|---|---|---|---|---|---|---|
| 1778071831 | 11.11° C | 87% | 1011.7 hPa | 0 mm | - | 23 W/m² | - |
| 1778071528 | 11.11° C | 88% | 1011.9 hPa | 0 mm | - | 19 W/m² | - |
| 1778071226 | 11.11° C | 88% | 1011.8 hPa | 0 mm | - | 22 W/m² | - |
| 1778070924 | 11.11° C | 87% | 1011.6 hPa | 0 mm | - | 20 W/m² | - |
| 1778070622 | 11.11° C | 88% | 1011.4 hPa | 0 mm | - | 19 W/m² | - |
| 1778070318 | 11.11° C | 87% | 1011.7 hPa | 0 mm | - | 20 W/m² | - |
| 1778070016 | 11.11° C | 87% | 1011.5 hPa | 0 mm | - | 12 W/m² | - |
| 1778069714 | 11.11° C | 86% | 1011.5 hPa | 0 mm | - | 9 W/m² | - |
| 1778069410 | 11.11° C | 86% | 1011.3 hPa | 0 mm | - | 9 W/m² | - |
| 1778069108 | 11.11° C | 85% | 1011.3 hPa | 0 mm | - | 8 W/m² | - |
| 1778068805 | 11.11° C | 85% | 1011.2 hPa | 0 mm | - | 6 W/m² | - |
| 1778068502 | 11.11° C | 84% | 1011.2 hPa | 0 mm | - | 4 W/m² | - |
| 1778068201 | 11.11° C | 84% | 1010.7 hPa | 0 mm | - | 5 W/m² | - |
| 1778067898 | 11.67° C | 83% | 1010.6 hPa | 0 mm | - | 2 W/m² | - |
| 1778067596 | 11.67° C | 83% | 1010.9 hPa | 0 mm | - | 1 W/m² | - |
| 1778067294 | 11.67° C | 83% | 1011 hPa | 0 mm | - | 1 W/m² | - |
| 1778066990 | 11.67° C | 82% | 1010.6 hPa | 0 mm | - | 0 W/m² | - |
| 1778066688 | 11.67° C | 82% | 1010.8 hPa | 0 mm | - | 0 W/m² | - |
| 1778066384 | 11.67° C | 82% | 1010.6 hPa | 0 mm | - | 0 W/m² | - |
| 1778066083 | 11.67° C | 82% | 1010.6 hPa | 0 mm | - | 0 W/m² | - |
| 1778065780 | 11.67° C | 81% | 1010.3 hPa | 0 mm | - | 0 W/m² | - |
| 1778065478 | 11.67° C | 81% | 1010 hPa | 0 mm | - | 0 W/m² | - |
| 1778065173 | 11.67° C | 81% | 1010.1 hPa | 0 mm | - | 0 W/m² | - |
| 1778064870 | 11.67° C | 81% | 1010.1 hPa | 0 mm | - | 0 W/m² | - |
| 1778064567 | 11.67° C | 81% | 1010 hPa | 0 mm | - | 0 W/m² | - |
* Rain latest hour (hover to see other rain measurements)
** Current wind speed in m/s (hover to see current wind gust speed)